Date String (YYYY-MM-DD hh:mm:ss) UTC,Instrument flags,Ambient pressure (hPa),Sample flow (lpm),Bypass flow (lpm),Sample temperature (°C),Ambient temperature (°C),ASC tube jacket temperature (°C),LED temperature (°C),Box temperature (°C),Sample RH (%),Span deviation,Mass concentration (μg/m³),Mass concentration (μg/m³),Mass concentration (μg/m³)
DateTimeUTC,F1_M11,P_M11,Q1_M11,Q2_M11,T1_M11,T2_M11,T3_M11,T4_M11,T5_M11,U1_M11,ZSPAN_M11,X2_M11,X0_M11,X1_M11
2022-08-01 01:00:00,,0829.5,5.00,0.00,29.3,27.8,00.0,38.1,31.3,24.2,0000.0,0003.37,0005.24,0003.20
2022-08-01 01:01:00,,0829.4,5.00,0.00,29.4,28.0,00.0,38.1,31.3,24.2,0000.0,0003.37,0004.18,0003.22
2022-08-01 01:02:00,,0829.5,4.99,0.00,29.4,28.2,00.0,38.1,31.4,24.1,0000.0,0003.39,0004.23,0003.24
2022-08-01 01:03:00,,0829.5,5.00,0.00,29.4,28.3,00.0,38.1,31.5,23.8,0000.0,0003.41,0004.46,0003.26
2022-08-01 01:04:00,,0829.5,5.00,0.00,29.5,28.5,00.0,38.2,31.5,23.7,0000.0,0003.43,0004.48,0003.28
2022-08-01 01:05:00,,0829.5,5.00,0.00,29.5,28.4,00.0,38.2,31.5,23.8,0000.0,0003.45,0004.54,0003.29
2022-08-01 01:06:00,,0829.5,4.99,0.00,29.5,27.6,00.0,38.2,31.3,23.9,0000.0,0003.47,0004.62,0003.30
2022-08-01 01:07:00,,0829.5,4.99,0.00,29.4,27.1,00.0,38.1,31.2,24.0,0000.0,0003.48,0004.63,0003.31
2022-08-01 01:08:00,,0829.5,5.02,0.00,29.4,27.1,00.0,38.1,31.2,23.8,0000.0,0003.48,0004.63,0003.31
2022-08-01 01:09:00,,0829.5,4.99,0.00,29.3,27.2,00.0,38.1,31.1,24.0,0000.0,0003.47,0004.72,0003.32
2022-08-01 01:10:00,,0829.5,5.01,0.00,29.3,27.4,00.0,38.1,31.1,24.0,0000.0,0003.48,0004.79,0003.32
2022-08-01 01:11:00,,0829.5,4.99,0.00,29.3,27.6,00.0,38.1,31.2,24.3,0000.0,0003.48,0004.81,0003.33
2022-08-01 01:12:00,,0829.5,5.00,0.00,29.4,27.8,00.0,38.1,31.3,24.3,0000.0,0003.51,0004.96,0003.34
2022-08-01 01:13:00,,0829.5,5.00,0.00,29.4,28.0,00.0,38.1,31.3,24.4,0000.0,0003.53,0005.02,0003.35
2022-08-01 01:14:00,,0829.5,5.00,0.00,29.4,28.2,00.0,38.1,31.4,24.4,0000.0,0003.53,0004.69,0003.36
2022-08-01 01:15:00,,0829.5,5.00,0.00,29.5,28.3,00.0,38.2,31.5,24.2,0000.0,0003.51,0004.62,0003.35
2022-08-01 01:16:00,,0829.5,4.98,0.00,29.5,28.4,00.0,38.2,31.5,23.9,0000.0,0003.51,0004.61,0003.36
2022-08-01 01:17:00,,0829.5,4.99,0.00,29.5,28.2,00.0,38.2,31.5,23.9,0000.0,0003.51,0004.54,0003.36
2022-08-01 01:18:00,,0829.5,5.02,0.00,29.5,27.4,00.0,38.1,31.3,24.1,0000.0,0003.51,0004.60,0003.36
2022-08-01 01:19:00,,0829.5,4.99,0.00,29.4,27.0,00.0,38.1,31.2,24.2,0000.0,0003.52,0004.74,0003.36
2022-08-01 01:20:00,,0829.5,5.01,0.00,29.4,27.0,00.0,38.1,31.1,24.1,0000.0,0003.53,0004.82,0003.36
2022-08-01 01:21:00,,0829.5,4.99,0.00,29.3,27.2,00.0,38.1,31.1,24.3,0000.0,0003.51,0004.75,0003.35
2022-08-01 01:22:00,,0829.5,5.00,0.00,29.3,27.4,00.0,38.1,31.1,24.4,0000.0,0003.49,0004.66,0003.35
2022-08-01 01:23:00,,0829.5,5.01,0.00,29.3,27.6,00.0,38.1,31.2,24.4,0000.0,0003.48,0004.66,0003.34
2022-08-01 01:24:00,,0829.5,5.00,0.00,29.3,27.8,00.0,38.1,31.3,24.5,0000.0,0003.48,0004.64,0003.34
2022-08-01 01:25:00,,0829.5,5.00,0.00,29.4,27.9,00.0,38.1,31.3,24.5,0000.0,0003.47,0004.62,0003.33
2022-08-01 01:26:00,,0829.5,5.00,0.00,29.4,28.1,00.0,38.1,31.4,24.5,0000.0,0003.48,0004.65,0003.33
2022-08-01 01:27:00,,0829.5,5.00,0.00,29.4,28.3,00.0,38.1,31.4,24.6,0000.0,0003.48,0004.78,0003.33
2022-08-01 01:28:00,,0829.5,4.99,0.00,29.5,28.4,00.0,38.2,31.5,24.5,0000.0,0003.48,0005.17,0003.33
2022-08-01 01:29:00,,0829.5,5.01,0.00,29.5,28.5,00.0,38.2,31.6,24.5,0000.0,0003.47,0005.11,0003.32
2022-08-01 01:30:00,,0829.5,5.00,0.00,29.6,28.4,00.0,38.2,31.5,24.5,0000.0,0003.45,0004.91,0003.31
2022-08-01 01:31:00,,0829.5,5.00,0.00,29.5,27.6,00.0,38.2,31.3,24.1,0000.0,0003.43,0004.71,0003.31
2022-08-01 01:32:00,,0829.4,5.00,0.00,29.5,27.1,00.0,38.1,31.2,24.4,0000.0,0003.43,0004.61,0003.32
2022-08-01 01:33:00,,0829.5,5.00,0.00,29.4,27.1,00.0,38.1,31.2,24.4,0000.0,0003.43,0004.55,0003.33
2022-08-01 01:34:00,,0829.5,5.00,0.00,29.3,27.2,00.0,38.1,31.1,24.7,0000.0,0003.44,0004.68,0003.33
2022-08-01 01:35:00,,0829.5,5.00,0.00,29.3,27.3,00.0,38.1,31.1,25.0,0000.0,0003.45,0004.90,0003.34
2022-08-01 01:36:00,,0829.5,5.00,0.00,29.3,27.5,00.0,38.1,31.2,25.2,0000.0,0003.46,0004.97,0003.34
2022-08-01 01:37:00,,0829.6,5.00,0.00,29.3,27.7,00.0,38.1,31.2,25.2,0000.0,0003.48,0005.10,0003.35
2022-08-01 01:38:00,,0829.6,4.99,0.00,29.4,27.9,00.0,38.1,31.3,25.2,0000.0,0003.47,0005.00,0003.35
2022-08-01 01:39:00,,0829.7,5.00,0.00,29.4,28.1,00.0,38.1,31.4,25.3,0000.0,0003.47,0004.59,0003.35
2022-08-01 01:40:00,,0829.7,5.00,0.00,29.4,28.2,00.0,38.2,31.4,25.3,0000.0,0003.48,0005.43,0003.35
2022-08-01 01:41:00,,0829.7,4.99,0.00,29.5,28.3,00.0,38.2,31.5,25.4,0000.0,0003.52,0005.69,0003.37
2022-08-01 01:42:00,,0829.7,5.00,0.00,29.5,28.5,00.0,38.2,31.5,25.5,0000.0,0003.54,0005.76,0003.38
2022-08-01 01:43:00,,0829.8,4.99,0.00,29.5,28.5,00.0,38.2,31.5,25.6,0000.0,0003.56,0005.88,0003.38
2022-08-01 01:44:00,,0829.7,5.00,0.00,29.5,28.0,00.0,38.2,31.4,25.5,0000.0,0003.60,0006.38,0003.39
2022-08-01 01:45:00,,0829.6,4.99,0.00,29.5,27.2,00.0,38.2,31.2,25.7,0000.0,0003.61,0007.07,0003.39
2022-08-01 01:46:00,,0829.8,5.01,0.00,29.4,27.0,00.0,38.2,31.1,25.8,0000.0,0003.63,0006.93,0003.40
2022-08-01 01:47:00,,0829.6,4.99,0.00,29.3,27.1,00.0,38.1,31.1,25.8,0000.0,0003.65,0007.23,0003.42
2022-08-01 01:48:00,,0829.6,4.99,0.00,29.3,27.2,00.0,38.1,31.1,26.1,0000.0,0003.66,0007.54,0003.44
2022-08-01 01:49:00,,0829.6,5.01,0.00,29.3,27.4,00.0,38.1,31.1,25.8,0000.0,0003.68,0007.57,0003.46
2022-08-01 01:50:00,,0829.7,5.00,0.00,29.3,27.6,00.0,38.1,31.2,25.9,0000.0,0003.71,0007.62,0003.48
2022-08-01 01:51:00,,0829.6,5.00,0.00,29.3,27.8,00.0,38.1,31.3,26.1,0000.0,0003.75,0007.23,0003.51
2022-08-01 01:52:00,,0829.6,5.00,0.00,29.4,28.0,00.0,38.1,31.3,26.0,0000.0,0003.76,0007.30,0003.52
2022-08-01 01:53:00,,0829.6,5.00,0.00,29.4,28.1,00.0,38.2,31.4,26.1,0000.0,0003.79,0007.92,0003.55
2022-08-01 01:54:00,,0829.6,4.99,0.00,29.4,28.3,00.0,38.2,31.4,26.1,0000.0,0003.82,0007.91,0003.58
2022-08-01 01:55:00,,0829.6,5.01,0.00,29.5,28.4,00.0,38.2,31.5,26.2,0000.0,0003.83,0007.85,0003.60
2022-08-01 01:56:00,,0829.6,5.00,0.00,29.5,28.5,00.0,38.2,31.5,26.2,0000.0,0003.84,0007.50,0003.62
2022-08-01 01:57:00,,0829.7,5.00,0.00,29.5,28.2,00.0,38.2,31.5,26.2,0000.0,0003.83,0007.98,0003.63
2022-08-01 01:58:00,,0829.6,5.02,0.00,29.5,27.4,00.0,38.2,31.3,26.2,0000.0,0003.83,0008.40,0003.64
2022-08-01 01:59:00,,0829.6,4.99,0.00,29.4,27.0,00.0,38.2,31.2,26.1,0000.0,0003.86,0008.09,0003.66
